Location: Danhult
(56.1833°N, 12.6500°E)
Time: 23:27:40
(UTC+00:00)

Daily predictions for brighter satellites

Satellite Brightness Start Highest point End
(mag) Time Altitude Azimuth Time Altitude Azimuth Time Altitude Azimuth
STARLINK-1216 3.8 20:47:15 10° W 20:51:18 53° S 20:55:21 10° ESE
Cosmos 1777 Rocket 4.5 20:48:35 10° NNW 20:53:46 56° NE 20:58:57 10° SE
STARLINK-1237 3.8 20:52:12 10° W 20:56:15 52° S 21:00:18 10° ESE
Resurs 01 Rocket 4.1 20:53:20 10° SW 20:56:22 18° W 20:59:24 10° NW
Cosmos 1536 Rocket 4.2 20:56:38 10° SSE 21:00:43 41° E 21:04:51 10° NNE
STARLINK-52 4.0 20:58:10 10° SSW 21:00:51 24° SSE 21:03:32 10° E
Cosmos 1544 Rocket 3.8 20:56:54 10° NNW 21:01:14 68° W 21:05:33 10° S
STARLINK-1202 3.8 20:57:12 10° W 21:01:14 52° S 21:05:15 10° ESE
ATLAS CENTAUR R/B 0.2 21:00:24 10° WNW 21:02:12 79° N 21:04:25 10° E
CENTAUR R/B 3.9 20:54:51 10° NW 21:02:13 44° WSW 21:10:16 10° S
SPOT 5 3.6 20:59:09 10° S 21:04:25 59° W 21:09:44 10° NNW
STARLINK-1203 3.9 21:01:56 10° W 21:05:59 51° S 21:10:00 10° ESE
BREEZE-M DEB 4.1 21:04:26 10° SSW 21:07:16 31° SSE 21:14:15 10° E
USA 215 3.4 21:01:28 10° E 21:08:03 87° N 21:14:38 10° W
Terra 2.1 21:03:29 10° S 21:08:13 67° WSW 21:13:00 10° NNW
Cosmos 1726 2.3 21:07:13 10° N 21:10:56 65° ENE 21:14:40 10° SSE
Cosmos 2292 Rocket 4.4 21:08:37 10° SE 21:11:01 20° E 21:13:18 10° NE
ATLAS 3B R/B 3.0 21:04:28 10° NW 21:11:04 59° SW 21:17:53 10° SSE
STARLINK-1246 3.9 21:07:08 10° W 21:11:10 50° SSW 21:15:10 10° ESE
Cosmos 1655 Rocket 4.3 21:09:55 10° S 21:15:59 57° E 21:22:09 10° NNE
STARLINK-1224 3.9 21:12:06 10° W 21:16:06 48° SSW 21:20:06 10° ESE
NOSS 2-2 (D) 4.1 21:14:56 10° WSW 21:18:40 60° NNW 21:23:18 10° NE
Cosmos 1470 3.5 21:14:58 10° NNW 21:18:42 47° W 21:22:25 10° S
Meteor 2-10 4.0 21:15:27 10° NNW 21:20:31 82° WSW 21:25:36 10° S
STARLINK-1444 3.0 21:18:47 10° SW 21:20:35 24° SSE 21:22:26 10° ESE
STARLINK-1225 3.9 21:17:05 10° W 21:21:05 47° SSW 21:25:04 10° ESE
STARLINK-1452 3.0 21:19:26 10° SW 21:21:14 24° SSE 21:23:04 10° ESE
Cosmos 1674 4.1 21:18:40 10° SE 21:21:46 24° E 21:24:53 10° NE
STARLINK-1392 3.0 21:20:21 10° SW 21:22:05 23° SSE 21:23:52 10° ESE
STARLINK-1399 3.0 21:20:22 10° SW 21:22:07 24° SSE 21:23:55 10° ESE
STARLINK-1393 3.0 21:20:24 10° SW 21:22:09 24° SSE 21:23:56 10° ESE
STARLINK-1394 3.0 21:20:26 10° SW 21:22:10 24° SSE 21:23:58 10° ESE
APEX 4.0 21:16:14 10° SSW 21:22:10 87° SE 21:26:54 10° NE
STARLINK-1397 3.0 21:20:28 10° SW 21:22:13 24° SSE 21:24:01 10° ESE
STARLINK-1395 3.0 21:20:30 10° SW 21:22:13 23° SSE 21:23:59 10° ESE
STARLINK-1396 3.0 21:20:29 10° SW 21:22:13 24° SSE 21:24:01 10° ESE
STARLINK-1414 3.0 21:20:30 10° SW 21:22:14 23° SSE 21:24:01 10° ESE
STARLINK-1408 3.0 21:20:33 10° SW 21:22:17 23° SSE 21:24:04 10° ESE
STARLINK-1404 3.0 21:20:33 10° SW 21:22:18 24° SSE 21:24:06 10° ESE
STARLINK-1416 3.0 21:20:34 10° SW 21:22:19 23° SSE 21:24:06 10° ESE
STARLINK-1415 3.0 21:20:34 10° SW 21:22:20 24° SSE 21:24:08 10° ESE
STARLINK-1450 3.0 21:20:35 10° SW 21:22:21 24° SSE 21:24:09 10° ESE
STARLINK-1406 3.0 21:20:39 10° SW 21:22:23 23° SSE 21:24:09 10° ESE
STARLINK-1401 3.0 21:20:37 10° SW 21:22:23 24° SSE 21:24:11 10° ESE
STARLINK-1417 3.0 21:20:40 10° SW 21:22:26 24° SSE 21:24:14 10° ESE
STARLINK-1402 3.0 21:20:41 10° SW 21:22:27 24° SSE 21:24:15 10° ESE
STARLINK-1413 3.0 21:20:42 10° SW 21:22:27 24° SSE 21:24:16 10° ESE
STARLINK-1419 3.0 21:20:42 10° SW 21:22:27 24° SSE 21:24:15 10° ESE
STARLINK-1422 3.0 21:20:47 10° SW 21:22:33 24° SSE 21:24:21 10° ESE
STARLINK-1453 3.0 21:20:47 10° SW 21:22:34 24° SSE 21:24:23 10° ESE
STARLINK-1398 3.0 21:20:47 10° SW 21:22:35 24° SSE 21:24:25 10° ESE
STARLINK-1420 3.0 21:20:51 10° SW 21:22:36 24° SSE 21:24:25 10° ESE
STARLINK-1440 3.0 21:20:51 10° SW 21:22:37 24° SSE 21:24:25 10° ESE
STARLINK-1436 (VISORSAT) 3.0 21:20:50 10° SW 21:22:38 24° SSE 21:24:27 10° ESE
STARLINK-1460 3.0 21:20:52 10° SW 21:22:39 24° SSE 21:24:28 10° ESE
STARLINK-1410 3.0 21:20:57 10° SW 21:22:43 24° SSE 21:24:32 10° ESE
STARLINK-1423 3.0 21:20:58 10° SW 21:22:44 24° SSE 21:24:32 10° ESE
STARLINK-1421 3.0 21:20:59 10° SW 21:22:44 24° SSE 21:24:32 10° ESE
STARLINK-1400 3.0 21:20:58 10° SW 21:22:44 24° SSE 21:24:33 10° ESE
STARLINK-1454 3.0 21:20:58 10° SW 21:22:44 24° SSE 21:24:33 10° ESE
STARLINK-1458 3.0 21:21:01 10° SW 21:22:47 24° SSE 21:24:35 10° ESE
STARLINK-1445 3.0 21:21:03 10° SW 21:22:49 24° SSE 21:24:38 10° ESE
STARLINK-1446 3.0 21:21:05 10° SW 21:22:52 24° SSE 21:24:41 10° ESE
STARLINK-1407 3.0 21:21:05 10° SW 21:22:52 24° SSE 21:24:41 10° ESE
STARLINK-1405 3.0 21:21:09 10° SW 21:22:53 23° SSE 21:24:39 10° ESE
STARLINK-1370 3.0 21:21:08 10° SW 21:22:54 24° SSE 21:24:43 10° ESE
STARLINK-1456 3.0 21:21:09 10° SW 21:22:55 24° SSE 21:24:43 10° ESE
STARLINK-1457 3.0 21:21:09 10° SW 21:22:55 24° SSE 21:24:43 10° ESE
STARLINK-1451 3.0 21:21:09 10° SW 21:22:55 24° SSE 21:24:43 10° ESE
STARLINK-1409 3.0 21:21:10 10° SW 21:22:56 24° SSE 21:24:44 10° ESE
STARLINK-1439 3.0 21:21:12 10° SW 21:22:56 23° SSE 21:24:42 10° ESE
STARLINK-1437 3.0 21:21:10 10° SW 21:22:56 24° SSE 21:24:45 10° ESE
STARLINK-1447 3.0 21:21:10 10° SW 21:22:56 24° SSE 21:24:45 10° ESE
STARLINK-1455 3.0 21:21:10 10° SW 21:22:57 24° SSE 21:24:45 10° ESE
STARLINK-1441 3.0 21:21:12 10° SW 21:22:59 24° SSE 21:24:48 10° ESE
STARLINK-1443 3.0 21:21:13 10° SW 21:23:01 24° SSE 21:24:51 10° ESE
STARLINK-1351 3.0 21:21:17 10° SW 21:23:03 24° SSE 21:24:52 10° ESE
STARLINK-1418 3.0 21:21:17 10° SW 21:23:03 24° SSE 21:24:52 10° ESE
STARLINK-1442 3.0 21:21:17 10° SW 21:23:04 24° SSE 21:24:53 10° ESE
STARLINK-1403 3.0 21:21:17 10° SW 21:23:04 24° SSE 21:24:53 10° ESE
STARLINK-1434 3.0 21:21:16 10° SW 21:23:04 24° SSE 21:24:54 10° ESE
STARLINK-1448 3.0 21:21:19 10° SW 21:23:06 24° SSE 21:24:55 10° ESE
STARLINK-1433 3.0 21:21:20 10° SW 21:23:06 24° SSE 21:24:56 10° ESE
STARLINK-1449 3.0 21:21:22 10° SW 21:23:09 24° SSE 21:24:58 10° ESE
STARLINK-1438 3.0 21:21:25 10° SW 21:23:11 24° SSE 21:24:59 10° ESE
STARLINK-1411 3.0 21:21:31 10° SW 21:23:18 24° SSE 21:25:07 10° ESE
STARLINK-1412 3.0 21:21:31 10° SW 21:23:18 24° SSE 21:25:08 10° ESE
BREEZE-M DEB (TANK) 3.9 21:11:53 10° WSW 21:23:38 43° S 21:27:17 10° ESE
SeaSat 1 4.2 21:21:28 10° ENE 21:24:35 16° ESE 21:27:40 10° SE
STARLINK-1230 4.0 21:22:03 10° W 21:26:01 46° SSW 21:30:00 10° ESE
BREEZE-M DEB (TANK) 4.2 21:23:41 10° SSW 21:26:40 14° SSE 21:28:42 10° SE
Cosmos 1606 Rocket 4.1 21:22:57 10° N 21:27:11 48° ENE 21:31:19 11° SSE
FALCON 9 DEB 4.0 21:24:26 10° SW 21:27:25 27° SSE 21:30:22 10° E
BREEZE-M DEB (TANK) 3.8 21:24:40 10° WSW 21:28:06 30° SSW 21:31:27 10° SE
Cosmos 1340 Rocket 2.9 21:24:05 10° NNW 21:28:11 82° WSW 21:32:10 11° S
Cosmos 2058 Rocket 4.4 21:24:14 10° N 21:28:13 31° ENE 21:32:13 10° SE
STARLINK-60 3.3 21:25:36 10° WSW 21:28:36 41° S 21:31:38 10° E
STARLINK-1243 4.0 21:27:03 10° W 21:31:01 45° SSW 21:34:58 10° ESE
Cosmos 1174 3.9 21:27:49 10° SSW 21:31:04 46° SE 21:35:02 10° NE
COSMOS 2455 3.0 21:27:07 10° SSW 21:32:56 54° ESE 21:38:48 10° NE
COSMOS 2487 3.5 21:29:47 10° NW 21:33:00 35° WSW 21:36:11 10° S
Cosmos 1025 Rocket 3.0 21:31:23 10° S 21:35:41 89° W 21:40:03 10° NNE
STARLINK-1236 4.0 21:31:59 10° W 21:35:56 43° SSW 21:39:54 10° SE
Cosmos 1975 Rocket 4.5 21:34:30 10° SW 21:38:36 37° WNW 21:42:43 10° N
NOSS 3-4 (A) 3.5 21:33:18 10° SW 21:39:14 67° SE 21:45:43 10° NE
NOSS 3-4 (C) 3.5 21:33:24 10° SW 21:39:21 66° SE 21:45:49 10° NE
Aureole 3 2.6 21:36:36 10° N 21:39:44 80° ENE 21:42:17 13° SSE
Cosmos 2263 Rocket 4.5 21:35:30 10° NNW 21:39:56 23° NNE 21:44:19 10° ENE
MTI 3.8 21:36:53 10° NNE 21:40:03 76° WNW 21:43:10 10° SSW
Cosmos 2263 4.4 21:35:39 10° SW 21:41:16 79° NW 21:46:56 10° NE
ALOS 2 3.4 21:37:18 10° SE 21:41:28 43° ENE 21:45:39 10° N
Cosmos 292 Rocket 4.5 21:38:41 10° SW 21:43:30 59° NW 21:48:20 10° NNE
Cosmos 1953 2.8 21:39:34 10° NNW 21:43:30 56° W 21:47:21 10° S
Cosmos 2297 Rocket 2.5 21:39:26 10° NNW 21:45:06 65° NE 21:50:43 10° SE
ERBS 2.2 21:41:51 10° WNW 21:45:11 72° SSW 21:48:30 10° ESE
EXPRESS MD2 4.5 21:41:26 10° WSW 21:45:22 45° S 21:53:09 10° ESE
ATLAS 5 CENTAUR R/B 2.3 21:42:29 10° SSW 21:45:33 23° SE 21:47:26 10° E
STARLINK-1269 4.1 21:41:57 10° W 21:45:52 41° SSW 21:49:46 10° SE
RESURS DK-1 3.0 21:42:39 10° S 21:46:26 36° ESE 21:50:15 10° NE
Cosmos 1271 Rocket 3.4 21:44:19 10° SSW 21:48:11 55° WNW 21:52:08 10° N
Cosmos 1943 Rocket 3.3 21:42:49 10° WSW 21:48:13 48° NW 21:53:41 10° NNE
Cosmos 2219 3.3 21:43:15 10° NNW 21:48:57 77° NE 21:54:36 10° SE
Cosmos 1626 4.0 21:46:19 10° SE 21:49:02 19° E 21:51:44 10° NE
CZ-4C R/B 4.1 21:47:38 10° ESE 21:49:08 11° ESE 21:50:41 10° E
Lacrosse 4 Rocket 2.4 21:45:08 10° NW 21:49:22 46° NE 21:53:29 10° ESE
Cosmos 2228 3.0 21:46:01 10° N 21:50:17 74° ENE 21:54:03 13° SSE
Cosmos 1992 Rocket 4.2 21:45:15 10° SSW 21:50:28 78° WNW 21:55:44 10° NNE
STARLINK-1200 4.2 21:46:55 10° W 21:50:49 39° SSW 21:54:42 10° SE
STARLINK-1378 4.5 21:49:22 10° SSW 21:52:47 27° SSE 21:56:12 10° E
Spot 4 3.9 21:50:03 12° SSE 21:54:33 85° WSW 21:59:26 10° NNW
SL-4 R/B 2.6 21:51:09 10° WSW 21:55:46 48° S 22:00:26 10° E
STARLINK-1192 4.2 21:51:55 10° W 21:55:47 38° SSW 21:59:38 10° SE
Cosmos 921 Rocket 4.2 21:52:46 13° SSE 21:55:59 29° E 21:59:48 10° NE
STARLINK-1379 4.4 21:53:46 10° SSW 21:57:13 28° SSE 22:00:42 10° E
Cosmos 1242 Rocket 4.3 21:55:01 10° SW 21:58:21 31° WNW 22:01:40 10° N
Cosmos 2082 4.5 21:53:52 10° NNW 21:59:24 50° NE 22:04:52 10° ESE
Cosmos 1707 3.4 21:56:16 10° SSW 22:00:03 52° WNW 22:03:53 10° N
STARLINK-1244 4.2 21:56:53 10° W 22:00:43 37° SSW 22:04:30 10° SE
STARLINK-1329 4.4 21:57:26 10° SSW 22:00:57 29° SSE 22:04:27 10° E
STARLINK-29 3.3 21:58:14 10° WSW 22:01:19 41° SSE 22:04:22 10° E
EO 1 Del DPAF 3.3 21:57:51 10° NNE 22:01:37 62° ESE 22:04:56 13° S
Timation 2 Rocket 4.3 21:58:17 10° NW 22:04:26 55° WSW 22:09:46 13° S
SL-4 R/B 0.9 22:03:43 18° SE 22:05:07 50° ENE 22:07:15 10° N
STARLINK-1362 4.3 22:01:51 10° SW 22:05:24 30° SSE 22:08:59 10° E
STARLINK-1138 4.3 22:01:51 10° W 22:05:39 35° SSW 22:09:16 11° SE
Cosmos 1656 Rocket 4.0 22:01:34 10° SW 22:07:10 72° NW 22:12:43 10° NNE
ATLAS 2AS CENTAUR R/B 3.1 21:59:34 10° SW 22:07:37 88° SE 22:15:30 10° NE
STARLINK-1373 4.3 22:06:20 10° SW 22:09:55 31° SSE 22:13:31 10° E
Cosmos 1726 Rocket 3.5 22:06:09 10° NNW 22:10:31 88° WSW 22:14:12 14° S
STARLINK-1143 4.3 22:06:51 10° W 22:10:37 34° SSW 22:14:04 12° SE
Okean 1-7 Rocket 4.4 22:09:54 13° SSE 22:13:31 39° E 22:17:47 10° NNE
STARLINK-1390 4.2 22:10:48 10° SW 22:14:26 32° SSE 22:18:04 10° E
Helios 1A 3.6 22:10:56 11° SE 22:14:47 49° ENE 22:18:50 10° N
ATLAS CENTAUR R/B 1.5 22:11:08 10° SW 22:15:23 77° NW 22:19:24 10° NE
STARLINK-1241 4.4 22:11:52 10° W 22:15:35 33° SSW 22:18:51 12° SE
STARLINK-1320 3.7 22:13:59 10° SW 22:16:46 29° SSE 22:19:32 10° E
STARLINK-1322 3.7 22:14:20 10° SW 22:17:06 30° SSE 22:19:54 10° E
STARLINK-1324 3.7 22:14:38 10° SW 22:17:26 30° SSE 22:20:13 10° E
STARLINK-1294 3.7 22:14:58 10° SW 22:17:44 30° SSE 22:20:32 10° E
Cosmos 1892 Rocket 4.0 22:14:31 14° SSE 22:18:02 49° E 22:22:15 10° NNE
STARLINK-1261 3.7 22:15:20 10° SW 22:18:07 30° SSE 22:20:54 10° E
SJ 16-02 1.8 22:13:53 10° NNW 22:18:18 61° ENE 22:22:33 11° SE
STARLINK-1325 3.7 22:15:40 10° SW 22:18:27 30° SSE 22:21:15 10° E
STARLINK-1333 3.6 22:16:02 10° SW 22:18:50 30° SSE 22:21:37 10° E
STARLINK-1334 3.6 22:16:19 10° SW 22:19:06 30° SSE 22:21:55 10° E
STARLINK-1326 3.6 22:16:39 10° SW 22:19:26 30° SSE 22:22:13 10° E
Cosmos 2098 Rocket 4.5 22:12:13 11° S 22:19:27 81° E 22:26:41 10° NNE
STARLINK-1323 3.6 22:17:01 10° SW 22:19:48 30° SSE 22:22:37 10° E
STARLINK-1349 3.6 22:17:18 10° SW 22:20:06 30° SSE 22:22:54 10° E
STARLINK-1365 4.2 22:16:30 10° SW 22:20:13 35° SSE 22:23:58 10° E
STARLINK-1336 3.6 22:17:38 10° SW 22:20:26 30° SSE 22:23:14 10° E
STARLINK-1239 4.5 22:16:51 10° W 22:20:32 31° SSW 22:23:39 13° SSE
STARLINK-1331 3.6 22:18:00 10° SW 22:20:49 30° SSE 22:23:37 10° E
Cosmos 2315 Rocket 4.2 22:14:42 10° NNW 22:20:53 68° W 22:26:32 13° S
STARLINK-1344 3.6 22:18:19 10° SW 22:21:07 31° SSE 22:23:55 10° E
STARLINK-1343 3.6 22:18:41 10° SW 22:21:29 31° SSE 22:24:18 10° E
STARLINK-1346 3.6 22:18:57 10° SW 22:21:47 31° SSE 22:24:37 10° E
STARLINK-1328 3.6 22:19:24 10° SW 22:22:12 31° SSE 22:25:01 10° E
STARLINK-1354 3.6 22:19:41 10° SW 22:22:30 31° SSE 22:25:19 10° E
STARLINK-1347 3.6 22:19:58 10° SW 22:22:47 31° SSE 22:25:36 10° E
Cosmos 2227 Rocket 2.2 22:17:13 10° NW 22:22:57 89° WSW 22:28:23 11° SSE
STARLINK-1357 3.6 22:20:23 10° SW 22:23:12 31° SSE 22:26:02 10° E
STARLINK-1335 3.6 22:20:41 10° SW 22:23:29 31° SSE 22:26:19 10° E
STARLINK-1327 3.6 22:21:01 10° SW 22:23:50 31° SSE 22:26:40 10° E
Cosmos 2369 Rocket 3.6 22:18:43 10° WSW 22:24:03 40° NW 22:29:22 10° NNE
STARLINK-1340 3.6 22:21:19 10° SW 22:24:08 31° SSE 22:26:58 10° E
STARLINK-1356 3.6 22:21:42 10° SW 22:24:31 31° SSE 22:27:21 10° E
STARLINK-1345 3.6 22:22:00 10° SW 22:24:49 31° SSE 22:27:39 10° E
STARLINK-1355 3.6 22:22:21 10° SW 22:25:11 32° SSE 22:28:01 10° E
Cosmos 1437 4.0 22:23:34 15° SE 22:25:23 26° E 22:28:00 10° NE
STARLINK-1321 3.6 22:22:42 10° SW 22:25:32 32° SSE 22:28:21 10° E
STARLINK-1358 3.6 22:23:04 10° SW 22:25:54 32° SSE 22:28:44 10° E
STARLINK-1332 3.6 22:23:22 10° SW 22:26:11 32° SSE 22:29:02 10° E
STARLINK-1348 3.6 22:23:42 10° SW 22:26:31 32° SSE 22:29:22 10° E
STARLINK-1330 3.6 22:24:02 10° SW 22:26:52 32° SSE 22:29:42 10° E
STARLINK-1363 3.6 22:24:21 10° SW 22:27:11 32° SSE 22:30:02 10° E
STARLINK-1337 3.6 22:24:43 10° SW 22:27:34 32° SSE 22:30:24 10° E
STARLINK-1342 3.5 22:25:03 10° SW 22:27:53 32° SSE 22:30:44 10° E
STARLINK-1364 3.5 22:25:23 10° SW 22:28:13 32° SSE 22:31:04 10° E
STARLINK-1376 3.5 22:25:43 10° SW 22:28:33 32° SSE 22:31:24 10° E
STARLINK-1360 3.5 22:26:02 10° SW 22:28:54 33° SSE 22:31:45 10° E
STARLINK-1361 3.5 22:26:23 10° SW 22:29:14 33° SSE 22:32:05 10° E
STARLINK-1367 3.5 22:26:39 10° SW 22:29:31 33° SSE 22:32:24 10° E
STARLINK-1366 3.5 22:27:02 10° SW 22:29:52 33° SSE 22:32:44 10° E
STARLINK-1338 4.0 22:27:17 10° SW 22:30:57 37° SSE 22:34:39 10° E
Cosmos 2084 Rocket 3.7 22:27:52 10° NW 22:32:20 78° NNE 22:36:50 10° ESE
Cosmos 1908 4.2 22:29:55 10° NNW 22:33:29 37° W 22:36:36 13° SSW
Cosmos 1356 Rocket 3.7 22:29:57 10° N 22:34:10 67° ENE 22:37:47 14° SSE
Nadezhda 1 Rocket 4.4 22:28:45 10° N 22:34:55 60° ENE 22:40:51 11° SSE
STARLINK-52 3.2 22:33:28 10° WSW 22:36:34 46° S 22:39:41 10° E
SL-14 R/B 3.5 22:36:22 16° S 22:39:16 55° E 22:43:03 10° NNE
Cosmos 2084 3.5 22:34:51 10° SW 22:39:18 72° SE 22:43:46 10° NE
STARLINK-1371 3.9 22:35:37 10° SW 22:39:19 39° SSE 22:43:01 10° E
STARLINK-1341 3.9 22:39:54 10° SW 22:43:39 40° SSE 22:47:24 10° E
Thor Agena Rocket 4.0 22:38:47 10° NNE 22:44:03 65° WNW 22:49:13 10° SSW
KORONAS-FOTON 4.3 22:42:06 12° SSW 22:45:40 57° WNW 22:49:31 10° N
Cosmos 1300 2.7 22:42:28 10° NNW 22:46:18 74° W 22:49:12 17° S
Terra 4.2 22:44:56 10° WSW 22:46:55 12° W 22:48:55 10° WNW
STARLINK-1374 3.9 22:44:08 10° SW 22:47:54 41° SSE 22:51:41 10° E
Meteor 2-10 Rocket 4.2 22:44:05 10° N 22:49:09 49° ENE 22:54:03 10° SE
Meteor 2-5 Rocket 3.8 22:46:11 13° SSW 22:51:20 87° WNW 22:57:06 10° NNE
USA 215 3.3 22:44:50 10° SE 22:51:20 63° SSW 22:57:51 10° WNW
STARLINK-1339 3.9 22:48:24 10° SW 22:52:11 42° SSE 22:55:59 10° E
STARLINK-1444 2.6 22:52:11 10° WSW 22:54:10 33° S 22:56:14 10° ESE
STARLINK-1452 2.6 22:52:49 10° WSW 22:54:49 33° S 22:56:51 10° ESE
Cosmos 2292 Rocket 4.5 22:52:21 10° SW 22:55:04 26° WNW 22:57:38 10° N
STARLINK-1392 2.6 22:53:42 10° WSW 22:55:37 32° S 22:57:12 13° ESE
STARLINK-1399 2.6 22:53:44 10° WSW 22:55:40 32° S 22:57:22 12° ESE
STARLINK-1393 2.6 22:53:46 10° WSW 22:55:41 32° S 22:57:20 13° ESE
STARLINK-1394 2.6 22:53:47 10° WSW 22:55:43 32° S 22:57:22 13° ESE
STARLINK-1395 2.5 22:53:51 10° WSW 22:55:46 32° S 22:57:08 16° SE
STARLINK-1397 2.6 22:53:49 10° WSW 22:55:46 32° S 22:57:29 12° ESE
STARLINK-1396 2.6 22:53:50 10° WSW 22:55:46 32° S 22:57:27 13° ESE
STARLINK-1414 2.6 22:53:51 10° WSW 22:55:46 32° S 22:57:21 14° ESE
STARLINK-1408 2.6 22:53:54 10° WSW 22:55:50 32° S 22:57:22 14° ESE
STARLINK-1404 2.6 22:53:55 10° WSW 22:55:51 32° S 22:57:33 12° ESE
STARLINK-1416 2.6 22:53:56 10° WSW 22:55:51 32° S 22:57:28 13° ESE
STARLINK-1415 2.6 22:53:56 10° WSW 22:55:53 32° S 22:57:41 12° ESE
STARLINK-1450 2.6 22:53:57 10° WSW 22:55:55 32° S 22:57:44 11° ESE
STARLINK-1406 2.6 22:54:00 10° WSW 22:55:55 32° S 22:57:26 14° ESE
STARLINK-1401 2.6 22:53:59 10° WSW 22:55:56 32° S 22:57:45 12° ESE
STARLINK-1417 2.6 22:54:03 10° WSW 22:55:59 32° S 22:57:49 12° ESE
STARLINK-1402 2.6 22:54:04 10° WSW 22:56:01 32° S 22:57:49 12° ESE
STARLINK-1413 2.6 22:54:04 10° WSW 22:56:01 32° S 22:57:50 12° ESE
STARLINK-1419 2.6 22:54:05 10° WSW 22:56:01 32° S 22:57:44 12° ESE
STARLINK-1422 2.6 22:54:10 10° WSW 22:56:07 32° S 22:57:54 12° ESE
STARLINK-1453 2.6 22:54:11 10° WSW 22:56:08 32° S 22:58:03 11° ESE
STARLINK-1398 2.6 22:54:11 10° WSW 22:56:10 32° S 22:58:11 10° ESE
STARLINK-1420 2.6 22:54:14 10° WSW 22:56:10 32° S 22:58:02 11° ESE
STARLINK-1440 2.6 22:54:15 10° WSW 22:56:12 32° S 22:58:06 11° ESE
STARLINK-1436 (VISORSAT) 2.6 22:54:15 10° WSW 22:56:13 32° S 22:58:15 10° ESE
STARLINK-1460 2.6 22:54:16 10° WSW 22:56:13 32° S 22:58:05 11° ESE
STARLINK-1410 2.6 22:54:21 10° WSW 22:56:18 32° S 22:58:07 12° ESE
STARLINK-1423 2.6 22:54:22 10° WSW 22:56:18 32° S 22:58:00 13° ESE
STARLINK-1421 2.6 22:54:22 10° WSW 22:56:18 32° S 22:58:00 12° ESE
STARLINK-1400 2.6 22:54:21 10° WSW 22:56:18 32° S 22:58:08 11° ESE
STARLINK-1454 2.6 22:54:22 10° WSW 22:56:20 32° S 22:58:10 11° ESE
STARLINK-1458 2.6 22:54:25 10° WSW 22:56:22 32° S 22:58:08 12° ESE
STARLINK-1445 2.6 22:54:27 10° WSW 22:56:24 32° S 22:58:19 11° ESE
STARLINK-1407 2.6 22:54:29 10° WSW 22:56:26 32° S 22:58:20 11° ESE
STARLINK-1446 2.6 22:54:29 10° WSW 22:56:27 32° S 22:58:21 11° ESE
STARLINK-1405 2.6 22:54:32 10° WSW 22:56:27 32° S 22:57:51 15° SE
STARLINK-1370 2.6 22:54:32 10° WSW 22:56:29 32° S 22:58:22 11° ESE
STARLINK-1457 2.6 22:54:33 10° WSW 22:56:29 32° S 22:58:16 12° ESE
STARLINK-1451 2.6 22:54:34 10° WSW 22:56:30 32° S 22:58:16 12° ESE
STARLINK-1439 2.6 22:54:36 10° WSW 22:56:30 32° S 22:57:54 15° SE
STARLINK-1456 2.6 22:54:33 10° WSW 22:56:30 32° S 22:58:16 12° ESE
STARLINK-1409 2.6 22:54:34 10° WSW 22:56:30 32° S 22:58:17 12° ESE
STARLINK-1377 3.8 22:52:42 10° SW 22:56:31 44° SSE 23:00:20 10° E
STARLINK-1447 2.6 22:54:34 10° WSW 22:56:31 32° S 22:58:25 11° ESE
STARLINK-1455 2.6 22:54:35 10° WSW 22:56:32 32° S 22:58:25 11° ESE
STARLINK-1437 2.6 22:54:35 10° WSW 22:56:32 32° S 22:58:21 12° ESE
STARLINK-1441 2.6 22:54:36 10° WSW 22:56:34 32° S 22:58:28 11° ESE
STARLINK-1443 2.6 22:54:39 10° WSW 22:56:37 32° S 22:58:36 10° ESE
STARLINK-1351 2.6 22:54:41 10° WSW 22:56:38 32° S 22:58:33 11° ESE
STARLINK-1418 2.6 22:54:41 10° WSW 22:56:38 32° S 22:58:32 11° ESE
STARLINK-1403 2.6 22:54:42 10° WSW 22:56:39 32° S 22:58:36 11° ESE
STARLINK-1434 2.6 22:54:42 10° WSW 22:56:39 32° S 22:58:39 10° ESE
STARLINK-1442 2.6 22:54:42 10° WSW 22:56:39 32° S 22:58:34 11° ESE
STARLINK-1448 2.6 22:54:43 10° WSW 22:56:41 32° S 22:58:35 11° ESE
STARLINK-1433 2.6 22:54:44 10° WSW 22:56:42 32° S 22:58:35 11° ESE
STARLINK-1449 2.6 22:54:46 10° WSW 22:56:44 32° S 22:58:40 11° ESE
STARLINK-1438 2.6 22:54:50 10° WSW 22:56:46 32° S 22:58:32 12° ESE
STARLINK-1411 2.6 22:54:57 10° WSW 22:56:54 32° S 22:58:44 11° ESE
STARLINK-1412 2.6 22:54:57 10° WSW 22:56:54 32° S 22:58:49 11° ESE
Cosmos 1674 3.7 22:53:30 10° SW 22:57:07 41° WNW 23:00:46 10° N
YAOGAN 11 4.0 22:54:28 15° SSE 22:58:02 87° WSW 23:02:22 10° NNW
ATLAS 3B R/B 4.4 22:56:24 10° WNW 23:00:33 17° WSW 23:04:46 10° SW
STARLINK-1353 3.8 22:56:59 10° WSW 23:00:49 45° SSE 23:04:39 10° E
Cosmos 1626 Rocket 4.1 22:57:33 15° SSE 23:00:55 49° E 23:05:10 10° NNE
Cosmos 2292 4.2 22:59:26 10° NNW 23:02:43 79° W 23:04:47 18° S
SeaSat 1 2.5 22:57:55 10° NE 23:02:53 74° ESE 23:07:35 11° SSW
FALCON 9 DEB 3.3 23:00:42 10° WSW 23:04:02 49° S 23:07:23 10° E
STARLINK-60 3.2 23:01:21 10° W 23:04:24 43° S 23:07:27 10° ESE
STARLINK-1375 3.8 23:01:18 10° WSW 23:05:09 46° SSE 23:09:00 10° E
Cosmos 2058 Rocket 3.8 23:02:07 10° NNW 23:06:22 43° W 23:09:53 14° SSW
Uosat 12 SS-18 rocket 4.0 23:04:24 10° NW 23:08:41 64° SW 23:13:04 10° SE
STARLINK-1350 3.7 23:05:36 10° WSW 23:09:27 47° SSE 23:13:19 10° E
Helios 1B rocket 3.6 23:07:10 10° NNE 23:10:56 32° E 23:14:04 13° SSE
STARLINK-1352 3.7 23:09:53 10° WSW 23:13:44 48° SSE 23:17:37 10° E
Cosmos 1980 Rocket 3.8 23:10:05 10° SSE 23:14:15 22° ESE 23:18:31 10° NE
ALOS 2 3.8 23:14:35 13° SSW 23:17:57 31° W 23:21:53 10° NNW
STARLINK-1368 3.7 23:14:21 10° WSW 23:18:14 49° S 23:22:08 10° E
Cosmos 468 Rocket 4.4 23:14:13 15° S 23:18:14 49° ESE 23:23:13 10° NE
COSMOS 2455 3.7 23:13:06 10° WSW 23:18:59 53° NW 23:24:56 10° NE
ERBS 3.7 23:18:28 10° W 23:21:06 21° SW 23:22:15 18° S
Cosmos 1455 2.4 23:18:14 10° N 23:21:59 64° ENE 23:25:11 14° SSE
Cosmos 1745 Rocket 4.1 23:16:47 14° S 23:22:04 74° E 23:28:14 10° NNE
Cosmos 1937 Rocket 3.6 23:17:02 10° NNW 23:22:17 71° WSW 23:27:02 13° SSE
STARLINK-1369 3.7 23:18:45 10° WSW 23:22:39 50° S 23:26:33 10° E
Cosmos 1812 Rocket 3.6 23:18:56 10° NNW 23:23:26 83° WSW 23:27:04 15° S
Cosmos 1626 2.7 23:20:51 13° SSW 23:23:58 50° WNW 23:27:38 10° N
USA 229 DEB 4.0 23:17:05 10° NW 23:24:13 79° NE 23:31:45 10° ESE
USA 229 4.0 23:17:12 10° NW 23:24:19 79° NNE 23:31:51 10° ESE
RESURS DK-1 3.5 23:20:29 10° WSW 23:24:27 42° NW 23:28:26 10° NNE
Cosmos 2369 4.4 23:20:09 14° S 23:24:31 40° ESE 23:29:46 10° NE
NOSS 3-1 (C) 4.1 23:18:00 10° NW 23:25:02 83° NE 23:33:21 10° SE
Cosmos 2263 Rocket 2.9 23:19:33 10° NNW 23:25:06 55° NE 23:30:34 10° SE
Alouette 2 Rocket 3.9 23:21:12 10° NNW 23:26:43 73° ENE 23:30:22 12° SSE
STARLINK-1372 3.7 23:23:02 10° WSW 23:26:56 51° S 23:30:50 10° E
Lacrosse 4 Rocket 2.1 23:24:00 10° NW 23:28:03 39° WSW 23:31:03 16° S
Cosmos 2297 Rocket 3.2 23:23:53 10° NW 23:28:51 33° WSW 23:32:59 14° SSW
NOSS 3-4 (A) 4.3 23:24:20 10° W 23:30:24 56° NNW 23:37:04 10° ENE
NOSS 3-4 (C) 4.3 23:24:25 10° W 23:30:29 56° NNW 23:37:10 10° ENE
Cosmos 1898 Rocket 4.0 23:25:50 10° NW 23:30:58 48° WSW 23:35:13 15° S
STARLINK-1378 3.7 23:27:32 10° WSW 23:31:27 51° S 23:35:22 10° E
Meteor 1-24 Rocket 4.1 23:27:06 11° SSW 23:32:13 59° WNW 23:37:50 10° N
Cosmos 2219 4.5 23:27:59 10° NW 23:32:36 27° WSW 23:36:34 13° SSW
Cosmos 1656 3.7 23:27:54 13° SSW 23:32:58 73° ESE 23:38:33 10° NE
NOSS 3-1 (A) 4.2 23:26:08 10° NW 23:33:06 74° NNE 23:41:20 10° ESE
Cosmos 921 Rocket 3.8 23:29:53 10° SW 23:34:06 48° WNW 23:38:25 10° NNE
Cosmos 372 Rocket 4.1 23:29:52 10° NNW 23:35:02 79° ENE 23:40:13 10° SSE
SL-4 R/B 2.7 23:30:32 10° W 23:35:08 44° SSW 23:39:40 10° ESE
STARLINK-1379 3.6 23:32:00 10° WSW 23:35:55 52° S 23:39:51 10° E
CZ-4C R/B 2.6 23:31:35 14° SSW 23:35:56 50° SE 23:41:58 10° NE
STARLINK-29 3.2 23:34:04 10° W 23:37:09 43° S 23:40:13 10° ESE
Cosmos 1602 Rocket 3.5 23:35:23 15° S 23:38:52 84° E 23:43:14 10° NNE
STARLINK-1329 3.6 23:35:45 10° WSW 23:39:41 53° S 23:43:37 10° E
PSLV R/B 3.9 23:35:52 10° NNE 23:40:20 61° ESE 23:43:52 15° S
Cosmos 2082 4.2 23:38:10 10° NW 23:43:32 45° WSW 23:48:10 13° S
ATLAS CENTAUR R/B 3.1 23:42:25 10° WSW 23:43:35 14° SW 23:43:35 14° SW
STARLINK-1362 3.6 23:40:14 10° WSW 23:44:12 53° S 23:48:08 10° E
Cosmos 2150 Rocket 4.1 23:41:55 10° NNW 23:47:08 77° ENE 23:52:17 10° SSE
Cosmos 192 4.5 23:43:01 11° SW 23:47:44 76° WNW 23:52:44 10° NNE
STARLINK-1373 3.6 23:44:46 10° WSW 23:48:43 54° S 23:52:40 10° E
EO 1 Delta rocket 4.5 23:44:04 10° N 23:49:31 57° WNW 23:53:51 12° SSW
Helios 1A 4.4 23:47:33 12° SW 23:50:34 25° W 23:54:06 10° NW
Cosmos 2181 Rocket 4.2 23:44:53 10° N 23:51:23 80° ENE 23:57:51 10° SSE
STARLINK-1320 3.1 23:49:13 10° WSW 23:52:14 46° S 23:55:16 10° ESE
STARLINK-1322 3.1 23:49:34 10° WSW 23:52:36 46° S 23:55:37 10° ESE
STARLINK-1324 3.1 23:49:53 10° WSW 23:52:54 46° S 23:55:55 10° ESE
STARLINK-1294 3.1 23:50:11 10° WSW 23:53:12 47° S 23:56:14 10° ESE
STARLINK-1390 3.6 23:49:18 10° WSW 23:53:15 54° S 23:57:13 10° E
Cosmos 2322 Rocket 4.4 23:51:05 10° ESE 23:53:24 13° E 23:55:42 10° ENE
STARLINK-1261 3.1 23:50:35 10° WSW 23:53:36 46° S 23:56:37 10° ESE
STARLINK-1325 3.1 23:50:55 10° WSW 23:53:56 46° S 23:56:58 10° ESE
STARLINK-1333 3.1 23:51:17 10° WSW 23:54:19 46° S 23:57:20 10° ESE
STARLINK-1334 3.1 23:51:35 10° WSW 23:54:35 46° S 23:57:36 10° ESE
ATLAS CENTAUR R/B 3.4 23:51:10 10° W 23:54:47 29° NNW 23:58:14 10° NE
STARLINK-1326 3.1 23:51:53 10° WSW 23:54:55 46° S 23:57:56 10° ESE
STARLINK-1323 3.1 23:52:16 10° WSW 23:55:17 46° S 23:58:19 10° ESE
STARLINK-1349 3.1 23:52:34 10° WSW 23:55:35 46° S 23:58:37 10° ESE
STARLINK-1336 3.1 23:52:54 10° WSW 23:55:55 46° S 23:58:56 10° ESE
STARLINK-1331 3.1 23:53:16 10° WSW 23:56:18 46° S 23:59:19 10° ESE
STARLINK-1344 3.1 23:53:35 10° WSW 23:56:36 46° S 23:59:37 10° ESE
